SL-16 DEB, 22409

Orbit data source: Space-Track

SL-16 DEB, 22409 is space debris in LEO originally from a launch on Fri, 25 Dec 1992 UTC launched from the Tyuratam Missile And Space Complex (TTMTR). Debris objects in space refer to the collection of defunct objects orbiting the Earth. Examples of debris include non-operational satellites, rocket bodies, and fragments generated from explosions, collisions, or faulty payload assembly.

Loading next visibility...
Identifier
22409, 1992-093DA
Orbit
LEO
Country
Flag of CISCIS
Related business
Manufacturer
Unknown
Mission
Spacecraft
Bus & Motor
Unknown
Mass
Unknown
Launch date (UTC)
1992-12-25 (33 years ago)
Launch vehicle
Unknown
Launch site
Tyuratam Missile And Space Complex (TTMTR)
Object type
Payload
Rocket body
Debris
Shape & HBR
Unknown shape, 0.3 m
Radar Cross Section
Medium (>0.1 m² and <1 m²)

Expand to show TLE details & history
Last TLE update: 8 hours ago

TLE from 8 hours ago
0 SL-16 DEB
1 22409U 92093DA  25298.10278743  .00001649  00000-0  31653-3 0  9999
2 22409  71.1314 328.6236 0117126 355.5209  35.7917 14.61011178714399
Epoch: 2025-10-25T02:28Z
TLE epoch observation values (Epoch: 2025-10-25T02:28:00.833Z)
Latitude
30.25882°
Longitude
-90.68061°
Altitude
626.411 km
Speed
7.584 km/s
True Right ascension
22h 40m 14s
True Declination
30° 06' 24"
Sunlit
Object was in full shadow at epoch
Visualization orbit readout
Latitude
Unknown
Longitude
Unknown
Altitude
Unknown
Speed
Unknown
Apparent Right ascension
Unknown
Apparent Declination
Unknown
Sunlit
N/A
Visualization observer readout
Local Sidereal Time
06:03:36
Azimuth
Unknown
Elevation
Unknown
Doppler factor
Unknown
Orbital elements
Apogee altitude
770.537 km
Perigee altitude
605.017 km
Semi-major axis
7,065.914 km
Eccentricity
0.01171
Inclination
71.1314°
RAAN
328.6236°
Arg. of periapsis
355.5209°
True anomaly
36.58606°
Mean anomaly
35.7917°
Eccentric anomaly
36.18793°
Mean motion
3.65419 °/min
Orbital period
98.52 mins
BSTAR
0.00031653
Loading maneuver chart data...
Computing Atmospheric mass density...
Loading historical data...
Loading historical data...
Loading historical data...
Loading historical data...
Loading historical data...
Loading historical data...
Loading historical data...

Documentation

Showing up to 5 results
|